Minot AFB, ND

3:43 AM CDT on April 28, 2017 (GMT -0500)
Minot Air Force Base

Weather History for KMIB - July, 2013

Change the Weather History Date:

Monday, July 22, 2013

  Actual Average Record
Temperature  
Mean Temperature 65 °F -  
Max Temperature 71 °F 78 °F 94 °F (2007)
Min Temperature 59 °F 56 °F 51 °F (1998)
Growing Degree Days 15 (Base 50)    
Moisture  
Dew Point 54 °F    
Average Humidity 73    
Maximum Humidity 95    
Minimum Humidity 55    
Precipitation  
Precipitation 0.00 in - - ()
Sea Level Pressure  
Sea Level Pressure 29.89 in    
Wind  
Wind Speed 12 mph (NNW)    
Max Wind Speed 17 mph    
Max Gust Speed -    
Visibility 10 miles    
Events      
Averages and records for this station are not official NWS values.
T = Trace of Precipitation, MM = Missing Value Source: NWS Daily Summary

Daily Weather History Graph

Daily Weather History Graph

Search for Another Location

Airport or City:

Trip Planner

Search our weather history database for the weather conditions in past years. The results will help you decide how hot, cold, wet, or windy it might be!

Date:

Astronomy

Jul. 22, 2013 Rise Set
Actual Time 6:08 AM CDT 9:35 PM CDT
Civil Twilight 5:29 AM CDT 10:13 PM CDT
Nautical Twilight 4:38 AM CDT 11:04 PM CDT
Astronomical Twilight 3:29 AM CDT 12:12 AM CDT
Moon 9:13 PM CDT (7/22) 6:12 AM CDT (7/22)
Length of Visible Light 16h 44m
Length of Day
15h 26m
Full, 100% of the Moon is Illuminated
Jul 22
Full
Jul 22
Full
Jul 29
Last Quarter
Aug 6
New
Aug 14
First Quarter

Hourly Weather History & Observations

Time (CDT) Temp. Dew Point Humidity Pressure Visibility Wind Dir Wind Speed Gust Speed Precip Events Conditions
12:58 AM 63.0 °F 58.3 °F 85% 29.75 in 10.0 mi NW 16.1 mph - N/A   Clear
1:58 AM 61.7 °F 58.5 °F 89% 29.76 in 10.0 mi WNW 15.0 mph - N/A   Clear
2:58 AM 60.4 °F 58.1 °F 92% 29.76 in 10.0 mi NW 16.1 mph - N/A   Clear
3:58 AM 59.4 °F 57.9 °F 95% 29.78 in 10.0 mi NW 12.7 mph - N/A   Partly Cloudy
4:58 AM 59.0 °F 57.2 °F 94% 29.81 in 10.0 mi WNW 10.4 mph - N/A   Mostly Cloudy
5:38 AM 59.0 °F 57.2 °F 94% 29.80 in 10.0 mi NW 10.4 mph - N/A   Overcast
5:58 AM 59.5 °F 57.9 °F 94% 29.82 in 10.0 mi WNW 10.4 mph - N/A   Overcast
6:23 AM 59.0 °F 57.2 °F 94% 29.82 in 10.0 mi NW 12.7 mph - N/A   Overcast
6:43 AM 60.8 °F 57.2 °F 88% 29.82 in 10.0 mi NW 13.8 mph - N/A   Overcast
6:58 AM 60.1 °F 56.8 °F 89% 29.83 in 10.0 mi NW 16.1 mph - N/A   Overcast
7:13 AM 60.8 °F 55.4 °F 82% 29.83 in 10.0 mi NNW 13.8 mph - N/A   Overcast
7:58 AM 60.4 °F 55.4 °F 83% 29.86 in 10.0 mi NNW 11.5 mph - N/A   Overcast
8:18 AM 60.8 °F 53.6 °F 77% 29.86 in 10.0 mi North 10.4 mph - N/A   Overcast
8:28 AM 60.8 °F 53.6 °F 77% 29.86 in 10.0 mi NNW 11.5 mph - N/A   Overcast
8:33 AM 60.8 °F 53.6 °F 77% 29.87 in 10.0 mi NNW 12.7 mph - N/A   Overcast
8:58 AM 60.6 °F 53.4 °F 77% 29.89 in 10.0 mi North 11.5 mph - N/A   Overcast
9:48 AM 60.8 °F 51.8 °F 72% 29.89 in 10.0 mi NNW 13.8 mph - N/A   Overcast
9:58 AM 62.6 °F 50.0 °F 63% 29.91 in 10.0 mi NNW 15.0 mph - N/A   Overcast
10:58 AM 62.6 °F 51.3 °F 66% 29.92 in 10.0 mi NNW 11.5 mph - N/A   Overcast
11:28 AM 62.6 °F 51.8 °F 68% 29.91 in 10.0 mi NW 17.3 mph - N/A   Overcast
11:58 AM 64.4 °F 51.3 °F 62% 29.93 in 10.0 mi NNW 13.8 mph - N/A   Overcast
12:08 PM 64.4 °F 51.8 °F 64% 29.92 in 10.0 mi NW 11.5 mph - N/A   Overcast
12:58 PM 64.6 °F 51.8 °F 63% 29.93 in 10.0 mi NNW 10.4 mph - N/A   Overcast
1:23 PM 66.2 °F 51.8 °F 60% 29.92 in 10.0 mi NNW 8.1 mph - N/A   Overcast
1:28 PM 66.2 °F 51.8 °F 60% 29.92 in 10.0 mi NNW 9.2 mph - N/A   Overcast
1:38 PM 64.4 °F 51.8 °F 64% 29.92 in 10.0 mi NNW 6.9 mph - N/A   Overcast
1:43 PM 66.2 °F 51.8 °F 60% 29.92 in 10.0 mi North 8.1 mph - N/A   Overcast
1:48 PM 66.2 °F 53.6 °F 64% 29.92 in 10.0 mi North 8.1 mph - N/A   Overcast
1:53 PM 66.2 °F 53.6 °F 64% 29.93 in 10.0 mi Variable 2.3 mph - N/A   Overcast
1:58 PM 65.5 °F 52.9 °F 64% 29.94 in 10.0 mi Variable 4.6 mph - N/A   Overcast
2:58 PM 66.4 °F 53.4 °F 63% 29.94 in 10.0 mi Variable 2.3 mph - N/A   Overcast
3:58 PM 67.5 °F 53.1 °F 60% 29.94 in 10.0 mi SSE 1.2 mph - N/A   Overcast
4:58 PM 70.0 °F 52.9 °F 55% 29.93 in 10.0 mi Variable 5.8 mph - N/A   Scattered Clouds
5:58 PM 71.1 °F 54.7 °F 56% 29.94 in 10.0 mi NE 6.9 mph - N/A   Mostly Cloudy
6:58 PM 69.4 °F 53.8 °F 57% 29.94 in 10.0 mi NE 8.1 mph - N/A   Scattered Clouds
7:58 PM 68.9 °F 54.3 °F 60% 29.94 in 10.0 mi NE 8.1 mph - N/A   Clear
8:58 PM 66.6 °F 53.4 °F 63% 29.95 in 10.0 mi ENE 6.9 mph - N/A   Scattered Clouds
9:58 PM 64.6 °F 53.2 °F 67% 29.98 in 10.0 mi NNE 4.6 mph - N/A   Mostly Cloudy
10:58 PM 63.1 °F 53.4 °F 71% 30.00 in 10.0 mi ENE 3.5 mph - N/A   Overcast
11:58 PM 62.6 °F 55.0 °F 76% 30.00 in 10.0 mi East 3.5 mph - N/A   Overcast